Weather History for Isachsen, NU

Change the Weather History Date:

Sunday, September 15, 2013

  Actual Average Record
Temperature  
Mean Temperature 8 °F -  
Max Temperature 11 °F - - ()
Min Temperature 3 °F - - ()
Degree Days  
Heating Degree Days 57    
Moisture  
Dew Point 7 °F    
Average Humidity 92    
Maximum Humidity 94    
Minimum Humidity 86    
Precipitation  
Precipitation 0.00 in - - ()
Sea Level Pressure  
Sea Level Pressure 30.23 in    
Wind  
Wind Speed 3 mph ()    
Max Wind Speed 6 mph    
Max Gust Speed -    
T = Trace of Precipitation, MM = Missing Value Source: Averaged Metar Reports

Daily Weather History Graph

Daily Weather History Graph

Search for Another Location

Airport:

Trip Planner

Search our weather history database for the weather conditions in past years. The results will help you decide how hot, cold, wet, or windy it might be!

Date:

Astronomy

Sep. 15, 2013 Rise Set
Actual Time 5:33 AM MDT 8:00 PM MDT
Civil Twilight 3:19 AM MDT 10:09 PM MDT
Nautical Twilight Sun does not rise Sun does not rise
Astronomical Twilight Sun does not rise Sun does not rise
Moon No Moon Rise No Moon Set
Length of Visible Light 18h 50m
Length of Day
14h 27m
Waxing Gibbous, 82% of the Moon is Illuminated
Sep 15
Waxing Gibbous
Sep 19
Full
Sep 26
Last Quarter
Oct 4
New
Oct 11
First Quarter

Hourly Weather History & Observations

Time (MDT) Temp. Windchill Dew Point Humidity Pressure Visibility Wind Dir Wind Speed Gust Speed Precip Events Conditions
12:00 AM 11 °F - 10 °F 93% 30.17 in - NNE 5.8 mph - -  
12:00 AM 11.5 °F 2.1 °F 9.9 °F 93% 30.17 in - NNE 5.8 mph - N/A   Unknown
1:00 AM 12.9 °F 6.9 °F 11.5 °F 94% 30.18 in - East 3.5 mph - N/A   Unknown
2:00 AM 12.4 °F 6.3 °F 10.8 °F 93% 30.19 in - ENE 3.5 mph - N/A   Unknown
3:00 AM 9.1 °F 2.6 °F 7.3 °F 92% 30.19 in - ENE 3.5 mph - N/A   Unknown
4:00 AM 10.2 °F - 8.4 °F 92% 30.20 in - ENE 2.3 mph - N/A   Unknown
5:00 AM 9.3 °F - 7.5 °F 92% 30.21 in - East 1.2 mph - N/A   Unknown
6:00 AM 7 °F - 5 °F 86% 30.21 in - ENE 2.3 mph - -  
6:00 AM 6.8 °F - 5.0 °F 92% 30.21 in - East 1.2 mph - N/A   Unknown
7:00 AM 7.0 °F - 5.0 °F 92% 30.22 in - NE 2.3 mph - N/A   Unknown
8:00 AM 7.9 °F 1.2 °F 6.1 °F 92% 30.22 in - NE 3.5 mph - N/A   Unknown
9:00 AM 7.5 °F 0.8 °F 5.7 °F 92% 30.22 in - NNE 3.5 mph - N/A   Unknown
10:00 AM 8.2 °F -0.3 °F 6.4 °F 92% 30.23 in - NNE 4.6 mph - N/A   Unknown
11:00 AM 9.3 °F 2.8 °F 7.7 °F 93% 30.24 in - NNE 3.5 mph - N/A   Unknown
12:00 PM 10 °F - 8 °F 90% 30.25 in - North 2.3 mph - -  
12:00 PM 10.0 °F - 8.6 °F 94% 30.25 in - North 2.3 mph - N/A   Unknown
1:00 PM 10.8 °F 4.5 °F 9.3 °F 94% 30.26 in - NNE 3.5 mph - N/A   Unknown
2:00 PM 10.8 °F - 9.3 °F 94% 30.26 in - North 2.3 mph - N/A   Unknown
3:00 PM 10.4 °F 4.0 °F 8.8 °F 93% 30.27 in - NNE 3.5 mph - N/A   Unknown
4:00 PM 10.6 °F 4.3 °F 9.0 °F 93% 30.27 in - NNE 3.5 mph - N/A   Unknown
5:00 PM 9.5 °F 1.2 °F 7.7 °F 92% 30.27 in - NNE 4.6 mph - N/A   Unknown
6:00 PM 9 °F - 7 °F 89% 30.27 in - NNE 3.5 mph - -  
6:00 PM 9.3 °F 2.8 °F 7.5 °F 92% 30.27 in - NNE 3.5 mph - N/A   Unknown
7:00 PM 7.5 °F -1.1 °F 5.5 °F 92% 30.26 in - NNE 4.6 mph - N/A   Unknown
8:00 PM 6.3 °F -0.7 °F 4.1 °F 91% 30.25 in - NNE 3.5 mph - N/A   Unknown
9:00 PM 5.5 °F - 3.4 °F 91% 30.25 in - NNE 2.3 mph - N/A   Unknown
10:00 PM 5.4 °F - 3.4 °F 92% 30.25 in - North 1.2 mph - N/A   Unknown
11:00 PM 3.9 °F - 1.6 °F 90% 30.25 in - Calm Calm - N/A   Unknown